Wetbulb
48.81 44.68 41.00 45.48 47.63 47.37 45.97 43.94 43.26 45.92 49.05 45.37 45.65 46.18 48.32 50.96 51.54 51.06 52.34 53.07 54.47 56.26 58.63 59.45 59.44 61.78 62.88 63.81 64.19 64.96 65.28 65.89 66.03 65.83 64.76 64.78 64.06 64.48 64.99 65.73 65.68 65.12 64.53 63.90
45.06 40.41 46.38 48.07 47.61 45.69 45.02 43.36 42.93 45.83 47.01 45.35 44.95 44.63 48.12 49.62 50.19 51.49 51.81 52.15 52.21 53.12 54.56 57.66 59.26 59.52 61.39 62.05 63.59 63.79 64.42 65.57 66.00 66.54 66.05 65.80 64.69 64.85 65.42 65.57 65.30 65.10 64.81 64.04
41.76 43.93 47.26 45.65 44.45 42.27 43.03 42.52 42.23 41.88 45.17 46.37 44.36 42.28 44.66 48.04 49.75 50.89 51.89 52.81 53.16 53.09 53.06 53.84 55.05 57.26 59.90 60.94 62.25 63.38 63.96 64.87 65.88 66.26 66.49 65.74 65.18 64.50 63.90 64.01 64.13 64.38 64.82 64.27
43.15 46.74 44.65 43.77 41.78 43.40 39.20 45.69 44.05 41.97 40.23 36.48 43.94 34.61 43.05 46.41 47.17 48.88 49.97 51.24 52.06 52.94 54.14 54.81 55.43 55.91 57.28 59.58 62.66 63.06 63.35 64.44 65.52 66.39 65.46 64.37 62.81 61.91 63.32 64.11 64.47 64.45 64.70 64.50
38.99 41.04 42.51 41.45 42.92 44.45 41.14 45.78 43.27 42.44 40.32 38.92 39.87 34.81 40.47 45.13 43.92 46.67 48.88 50.58 51.97 53.10 53.86 54.37 55.31 56.39 57.21 59.21 60.44 61.30 62.31 63.11 64.11 65.25 65.75 64.48 63.57 63.59 64.16 64.43 64.05 64.63 64.95 64.91
39.96 44.20 43.60 43.30 45.58 46.08 46.41 43.49 42.63 42.46 39.62 32.03 38.10 37.41 38.38 42.33 44.79 47.13 48.37 50.08 51.30 52.26 53.56 54.22 55.50 56.21 56.11 58.50 59.45 59.98 59.81 61.26 62.87 63.92 64.73 64.86 63.92 63.47 62.86 62.76 63.01 63.42 64.34 64.35
37.96 38.72 42.14 42.39 41.17 43.49 43.27 39.67 32.85 31.56 30.93 30.32 39.40 37.01 39.69 45.36 47.13 47.78 48.07 49.10 50.84 52.18 52.28 52.83 53.67 54.02 54.63 55.73 57.68 58.59 57.80 58.11 61.20 62.55 63.47 64.25 64.40 64.26 63.46 63.19 63.20 63.31 63.31 63.29
33.42 30.58 39.61 41.95 38.58 37.81 39.79 39.51 33.08 25.45 27.32 31.40 36.47 32.12 38.31 46.03 47.87 48.42 49.39 50.11 50.56 50.84 52.27 51.63 51.47 51.85 52.87 53.53 54.41 54.99 56.21 57.03 58.78 60.68 62.09 63.48 64.19 64.46 64.35 63.84 63.80 63.78 63.53 63.42
34.33 34.41 42.31 42.92 44.12 42.85 39.08 35.99 41.78 33.44 30.71 30.65 35.00 39.00 43.53 46.04 45.37 46.50 47.15 48.33 48.97 49.88 49.68 49.98 50.67 51.02 51.63 51.93 51.62 52.89 54.04 55.73 57.51 58.91 60.49 61.73 62.94 63.49 63.51 64.19 64.42 64.28 64.60 64.07
39.49 32.75 39.75 42.24 44.62 44.67 41.77 43.50 33.65 34.85 26.69 24.93 32.23 34.39 35.92 41.14 43.04 45.41 45.83 46.68 47.19 48.78 49.50 49.99 49.89 50.72 51.76 52.00 51.44 51.35 51.91 53.26 55.87 57.74 59.55 60.26 61.38 62.51 63.09 63.44 63.33 63.92 64.33 64.36
42.16 38.29 34.40 39.40 37.83 37.00 37.79 37.45 38.51 38.19 35.12 28.42 27.07 32.98 43.07 43.12 44.69 44.72 45.65 47.01 47.94 48.36 48.63 49.05 49.66 50.99 51.93 52.74 52.09 50.66 50.70 51.13 52.62 55.66 57.43 59.58 60.74 61.48 62.01 62.16 62.84 63.26 63.90 63.82
42.60 38.78 31.97 33.90 37.86 41.81 41.11 38.34 38.16 32.17 29.75 32.45 32.24 33.17 44.70 45.61 45.13 45.86 45.99 46.97 47.74 48.03 48.58 49.83 50.74 51.44 51.47 51.93 52.19 51.02 50.19 50.10 52.42 54.11 55.13 57.11 58.95 60.43 60.71 60.99 61.75 62.59 62.60 63.24
40.82 36.44 29.98 31.18 34.59 38.24 36.89 37.93 38.92 38.73 36.55 31.85 29.39 33.44 43.33 44.68 45.34 46.59 45.91 46.08 46.63 47.60 48.71 49.18 49.31 49.59 50.30 50.95 51.33 51.20 50.61 50.02 50.22 54.18 56.07 56.64 57.87 59.01 59.59 60.34 60.91 60.35 59.99 60.53
42.52 36.68 34.07 29.71 33.51 36.70 34.41 37.46 39.20 37.44 31.96 32.86 34.33 36.70 41.03 42.92 44.26 45.70 45.40 45.95 46.14 46.95 47.92 48.11 48.29 49.21 50.00 50.59 50.84 50.92 50.45 50.54 49.92 49.31 55.13 57.25 57.89 58.70 59.44 59.94 59.56 59.08 59.12 59.38
41.20 33.49 35.88 36.70 35.24 37.60 36.62 36.15 37.19 35.38 36.34 32.79 36.35 37.02 40.86 43.56 44.23 44.62 45.30 45.35 45.36 45.50 46.76 46.96 47.05 47.54 48.35 49.19 50.40 51.01 50.83 50.40 49.46 48.67 48.79 52.64 55.51 56.23 56.57 56.83 57.03 56.35 55.76 56.41
41.55 34.04 35.79 31.82 35.17 36.35 34.46 36.93 37.23 37.44 37.85 37.62 38.41 37.58 43.94 45.08 45.10 43.68 43.98 44.33 43.62 44.33 43.93 43.32 43.84 44.62 45.04 46.14 47.98 50.49 50.73 50.09 49.17 48.03 48.33 48.51 47.73 48.89 50.17 51.20 49.31 47.26 47.26 47.49
37.11 34.33 32.43 29.30 33.30 32.40 28.35 33.03 36.05 37.65 39.50 38.90 34.78 40.02 43.57 42.06 42.52 43.20 43.77 44.15 42.56 40.46 40.29 41.06 41.71 42.31 43.44 44.22 45.64 46.85 50.15 50.25 48.14 46.94 46.96 44.55 44.80 44.82 45.76 44.01 42.55 41.30 43.37 42.88
36.60 34.25 32.72 28.80 30.54 23.28 34.64 37.31 38.19 36.55 37.97 40.34 40.32 40.90 41.96 39.67 38.78 40.98 41.90 37.97 36.89 36.87 37.70 38.71 39.38 39.82 41.58 42.60 43.51 45.38 46.78 48.41 46.86 46.07 45.40 40.36 40.36 40.69 40.83 41.37 40.45 39.95 39.86 40.13
39.91 35.15 27.45 26.90 26.94 31.20 33.59 32.91 34.04 33.84 34.51 37.71 37.79 37.56 35.44 34.98 37.90 38.63 36.78 35.38 34.29 35.07 35.66 36.67 37.87 39.34 39.38 40.39 41.94 40.31 41.85 45.67 44.28 43.55 42.59 39.83 39.50 39.14 39.66 38.41 40.49 39.97 38.43 36.74
37.83 38.06 33.31 25.67 24.75 21.80 30.18 34.22 39.22 39.25 28.94 31.05 31.12 30.17 29.53 31.65 31.72 37.23 31.84 31.69 32.41 33.28 33.66 34.51 35.74 37.31 36.37 37.58 37.87 35.90 38.18 40.68 41.94 41.41 39.84 38.59 38.20 36.94 38.50 38.86 36.82 35.33 34.82 33.28
30.08 31.29 29.57 27.60 26.55 29.20 33.72 34.21 37.41 26.19 25.35 26.30 26.45 26.13 25.58 25.94 28.71 28.20 28.85 29.62 30.39 31.33 31.66 33.03 33.91 33.02 33.11 33.60 32.46 31.08 34.80 36.51 37.53 36.02 36.03 35.23 35.72 34.82 37.64 35.62 34.30 33.80 33.39 33.05
29.08 28.57 28.20 26.57 25.60 23.19 27.70 32.84 28.57 22.26 26.01 23.19 22.30 22.80 21.30 22.47 23.41 24.66 25.88 26.20 27.44 28.28 28.49 28.96 29.57 29.39 30.26 31.87 30.15 29.49 30.82 33.71 33.69 33.74 33.76 33.52 33.70 33.32 33.59 33.84 33.01 33.04 33.15 32.77
28.09 31.90 30.47 30.56 29.33 24.70 23.08 19.49 19.62 20.47 19.80 19.26 19.12 19.83 19.24 19.12 20.20 21.38 21.69 23.43 25.23 25.50 25.28 25.78 25.59 24.85 26.69 29.65 27.73 26.34 28.74 29.58 31.28 32.73 32.95 32.84 32.77 32.79 33.04 33.13 32.84 33.12 33.26 33.37
28.31 26.14 30.93 29.04 25.37 23.72 20.14 19.44 17.96 17.77 17.18 17.84 18.08 17.06 17.12 16.18 17.69 18.38 19.65 21.21 21.23 21.91 21.12 22.44 20.92 19.73 21.90 24.31 23.37 24.07 23.88 24.99 27.93 32.17 32.39 32.04 32.25 32.28 32.53 32.96 33.16 33.60 33.68 33.60
22.64 23.99 26.67 23.96 19.44 21.73 19.73 18.15 14.70 15.48 15.61 14.49 15.07 15.05 14.29 14.87 15.11 16.34 17.31 18.02 18.30 18.33 19.49 18.00 16.78 16.66 16.87 17.96 18.33 20.16 20.22 21.44 24.34 30.68 29.52 30.84 30.87 31.65 30.28 30.55 31.46 30.37 30.89 33.42
12.89 12.64 24.21 24.29 10.43 10.94 16.28 13.38 13.05 10.47 10.15 11.47 10.86 10.70 12.93 13.31 13.44 14.53 14.32 15.11 15.00 15.16 14.58 13.84 13.20 12.78 12.71 13.59 14.22 15.48 15.39 17.09 22.19 27.42 27.69 27.94 28.38 29.02 29.72 29.48 29.78 32.84 32.62 32.88
MSLP
1018.33 1018.31 1016.82 1015.10 1015.98 1015.42 1014.91 1014.23 1013.76 1014.03 1014.57 1015.46 1014.57 1013.34 1012.43 1012.11 1011.66 1011.39 1011.41 1011.21 1010.91 1010.78 1010.87 1011.15 1011.45 1012.28 1013.01 1013.34 1013.76 1014.09 1014.33 1014.78 1015.44 1015.81 1016.07 1016.20 1016.34 1016.76 1016.95 1016.98 1017.16 1017.37 1017.67 1018.03
1017.98 1016.78 1014.69 1016.59 1016.15 1015.77 1015.59 1014.81 1014.35 1014.61 1015.49 1016.34 1014.82 1013.02 1012.40 1011.95 1011.48 1011.24 1011.05 1010.60 1010.26 1010.16 1010.14 1010.26 1010.63 1011.30 1012.16 1012.45 1012.40 1013.06 1013.43 1013.56 1013.90 1014.49 1014.94 1015.28 1015.74 1016.12 1016.22 1016.38 1016.63 1016.92 1017.03 1017.26
1016.44 1015.19 1016.56 1016.16 1016.01 1015.98 1015.62 1015.14 1014.93 1015.19 1015.90 1016.05 1015.01 1012.50 1011.96 1010.66 1010.50 1010.24 1010.15 1009.97 1009.74 1009.71 1009.53 1009.47 1009.78 1010.42 1010.99 1011.58 1011.93 1012.01 1012.06 1012.40 1012.63 1013.18 1013.99 1014.65 1015.18 1015.58 1015.64 1015.64 1015.79 1016.07 1016.42 1016.65
1016.77 1016.33 1016.01 1016.23 1015.95 1016.10 1015.65 1015.71 1015.89 1016.31 1016.55 1015.57 1015.17 1012.39 1011.25 1010.03 1009.31 1009.43 1009.59 1009.46 1009.16 1009.08 1009.16 1009.34 1009.57 1009.84 1010.06 1010.52 1011.18 1011.50 1011.69 1011.94 1012.06 1012.37 1013.00 1013.47 1013.75 1013.79 1013.71 1014.01 1014.48 1014.92 1015.33 1015.67
1017.07 1016.98 1016.14 1016.34 1015.01 1016.55 1015.61 1016.43 1016.71 1017.07 1016.82 1016.54 1015.26 1014.70 1010.47 1010.50 1009.18 1009.25 1009.18 1008.94 1008.66 1008.59 1008.82 1009.14 1009.40 1009.65 1009.93 1010.24 1010.28 1010.54 1010.93 1011.23 1011.32 1011.56 1011.85 1012.31 1012.74 1012.87 1012.90 1013.43 1013.63 1013.82 1014.07 1014.40
1017.46 1017.85 1017.44 1016.66 1016.48 1015.95 1016.38 1017.13 1017.42 1017.34 1017.35 1016.31 1014.06 1013.94 1009.94 1009.20 1008.47 1008.38 1008.60 1008.57 1008.54 1008.68 1009.22 1009.73 1009.70 1010.02 1009.97 1010.00 1010.12 1010.15 1010.18 1010.14 1010.43 1010.67 1010.82 1011.15 1011.30 1011.63 1012.09 1012.36 1012.50 1012.66 1012.98 1013.39
1017.57 1017.75 1017.65 1017.97 1017.28 1016.50 1016.48 1016.96 1017.41 1017.46 1017.15 1014.66 1013.41 1012.42 1009.83 1008.59 1008.54 1008.80 1008.73 1008.71 1008.80 1009.04 1009.67 1010.03 1009.93 1009.85 1009.84 1009.75 1009.77 1009.69 1009.74 1009.59 1009.51 1009.82 1009.98 1010.09 1010.30 1010.68 1010.87 1011.06 1011.35 1011.59 1011.93 1012.14
1016.47 1017.33 1016.98 1017.52 1017.47 1016.25 1015.71 1015.63 1015.71 1015.87 1015.49 1013.95 1013.80 1011.55 1009.51 1008.95 1008.70 1008.93 1008.93 1008.99 1009.38 1009.69 1009.91 1010.14 1010.16 1010.06 1009.78 1009.74 1009.66 1009.49 1009.27 1009.06 1009.03 1008.99 1009.08 1009.39 1009.72 1009.90 1009.99 1010.21 1010.28 1010.46 1010.81 1011.18
1015.12 1015.69 1016.18 1016.32 1016.18 1016.38 1016.19 1015.90 1015.74 1015.84 1016.09 1014.82 1012.45 1010.65 1009.50 1008.66 1008.43 1008.48 1008.85 1009.16 1009.70 1010.16 1010.39 1010.35 1010.20 1009.96 1009.86 1009.65 1009.65 1009.40 1009.13 1008.77 1008.53 1008.43 1008.42 1008.52 1008.90 1009.20 1009.24 1009.31 1009.50 1009.67 1009.90 1010.26
1013.32 1014.79 1015.78 1016.04 1016.05 1015.83 1015.76 1015.67 1015.81 1016.14 1015.57 1014.08 1011.75 1010.42 1008.96 1008.53 1008.37 1008.98 1009.74 1009.97 1010.41 1010.55 1010.51 1010.40 1010.08 1009.82 1009.82 1009.65 1009.55 1009.23 1008.98 1008.73 1008.38 1008.02 1007.89 1007.93 1008.06 1008.40 1008.70 1008.94 1008.82 1008.82 1009.00 1009.39
1012.13 1013.33 1016.29 1016.45 1015.52 1014.86 1015.39 1014.79 1014.90 1014.84 1014.86 1013.76 1012.13 1009.86 1008.77 1008.55 1008.61 1009.11 1010.19 1010.58 1010.50 1010.42 1010.44 1010.23 1010.12 1009.89 1009.59 1009.15 1009.17 1009.01 1008.65 1008.43 1008.18 1007.90 1007.64 1007.52 1007.65 1007.80 1008.03 1008.21 1008.30 1008.42 1008.51 1008.77
1011.78 1012.98 1015.10 1016.02 1015.96 1015.23 1013.93 1014.46 1014.91 1014.73 1015.12 1014.48 1012.92 1010.12 1008.92 1008.66 1009.31 1009.87 1010.19 1010.27 1010.52 1010.32 1010.29 1010.14 1009.74 1009.46 1009.30 1008.95 1008.72 1008.88 1008.62 1008.37 1008.26 1007.93 1007.60 1007.22 1007.12 1007.23 1007.45 1007.52 1007.68 1007.93 1008.13 1008.33
1011.91 1012.75 1014.22 1015.58 1016.11 1015.62 1015.17 1015.42 1015.52 1015.08 1015.07 1013.50 1012.33 1009.76 1009.37 1009.25 1009.33 1009.66 1010.10 1010.28 1010.35 1010.35 1010.35 1010.24 1010.02 1009.84 1009.67 1009.25 1008.82 1008.42 1008.40 1008.12 1008.14 1007.99 1007.72 1007.31 1006.98 1006.85 1006.85 1006.95 1007.13 1007.39 1007.72 1007.88
1011.62 1012.61 1012.88 1012.97 1013.06 1014.33 1014.86 1014.75 1014.78 1014.89 1014.48 1012.48 1011.58 1009.59 1009.57 1009.33 1008.95 1009.29 1009.81 1010.35 1010.12 1010.16 1010.33 1010.39 1010.41 1010.20 1010.05 1009.61 1008.87 1008.49 1008.15 1008.12 1008.19 1007.95 1007.80 1007.50 1007.32 1007.20 1006.99 1007.00 1007.14 1007.34 1007.57 1007.81
1011.74 1012.25 1013.01 1013.32 1013.74 1013.55 1013.72 1014.04 1014.36 1014.15 1013.20 1012.97 1010.23 1009.77 1009.67 1009.53 1009.71 1010.12 1010.33 1010.64 1010.59 1010.88 1011.14 1011.45 1011.55 1011.32 1010.74 1009.97 1009.19 1008.57 1008.18 1007.90 1008.08 1007.87 1007.68 1007.66 1007.65 1007.54 1007.51 1007.42 1007.49 1007.68 1007.88 1008.09
1012.06 1012.55 1013.42 1014.14 1014.15 1013.84 1013.66 1013.57 1013.70 1013.33 1012.46 1012.34 1010.56 1009.97 1010.59 1010.77 1010.78 1011.17 1011.42 1011.49 1011.84 1012.30 1012.95 1013.34 1013.07 1012.48 1011.84 1011.21 1010.17 1008.96 1008.20 1007.84 1007.93 1007.86 1007.62 1007.69 1007.88 1008.11 1008.21 1008.15 1008.26 1008.49 1008.62 1008.69
1012.53 1013.24 1014.08 1014.59 1014.81 1014.62 1014.05 1012.44 1012.46 1012.43 1012.45 1011.86 1011.43 1009.58 1011.49 1011.43 1011.62 1011.98 1012.44 1012.91 1013.66 1014.33 1014.57 1014.53 1014.32 1013.89 1013.20 1012.25 1011.42 1010.07 1008.62 1007.92 1007.76 1007.89 1007.88 1007.96 1008.20 1008.40 1008.75 1009.11 1009.19 1009.16 1009.09 1009.16
1012.62 1013.67 1014.45 1015.05 1015.25 1014.11 1011.92 1012.18 1012.30 1012.67 1012.39 1012.57 1012.47 1011.69 1012.65 1013.31 1013.80 1014.10 1014.58 1015.54 1016.09 1016.31 1015.94 1015.48 1015.36 1014.85 1014.22 1013.15 1011.82 1010.63 1009.53 1008.24 1007.94 1007.82 1007.90 1008.22 1008.56 1008.63 1008.77 1009.21 1009.28 1009.42 1009.46 1009.50
1013.08 1013.75 1014.99 1015.31 1014.91 1013.31 1012.29 1012.72 1012.89 1013.00 1013.16 1014.23 1014.03 1014.45 1015.26 1015.48 1015.08 1015.43 1016.66 1017.49 1017.96 1017.80 1017.48 1016.99 1016.44 1015.74 1014.90 1013.92 1012.70 1011.78 1010.30 1008.77 1008.32 1008.16 1007.95 1008.23 1008.81 1008.89 1008.89 1009.20 1009.39 1009.58 1009.72 1009.82
1013.95 1013.97 1014.55 1015.74 1015.08 1014.22 1013.40 1013.15 1013.16 1013.99 1015.61 1016.98 1017.60 1017.97 1018.26 1017.94 1016.98 1016.20 1017.50 1018.05 1018.36 1018.58 1018.24 1017.52 1016.80 1016.08 1015.55 1014.55 1013.88 1013.04 1011.26 1009.83 1009.17 1008.86 1008.87 1008.81 1009.04 1009.26 1009.27 1009.32 1009.41 1009.64 1009.93 1010.15
1014.46 1015.05 1015.13 1015.74 1015.80 1015.41 1014.95 1015.07 1015.33 1017.35 1019.73 1020.45 1020.87 1021.11 1021.13 1020.86 1020.92 1020.66 1020.10 1019.40 1019.55 1019.04 1018.55 1018.16 1017.48 1016.79 1016.10 1015.51 1014.83 1013.75 1012.31 1011.08 1010.48 1010.03 1009.73 1009.49 1009.21 1009.28 1009.37 1009.51 1009.73 1009.70 1009.99 1010.27
1014.49 1015.20 1015.77 1016.87 1017.36 1017.85 1017.96 1017.78 1019.47 1021.88 1022.09 1022.98 1023.34 1023.44 1023.46 1023.23 1022.69 1022.23 1021.63 1020.68 1019.78 1019.17 1018.74 1018.71 1018.07 1017.37 1016.78 1016.05 1015.41 1014.34 1013.07 1012.05 1011.23 1010.63 1009.99 1009.65 1009.38 1009.32 1009.38 1009.52 1009.96 1010.12 1010.16 1010.32
1015.49 1015.48 1015.90 1017.20 1018.33 1020.08 1020.99 1022.23 1023.91 1024.55 1024.78 1025.15 1025.35 1025.32 1025.14 1024.41 1023.71 1023.23 1022.56 1021.76 1020.81 1020.24 1019.87 1019.68 1019.07 1018.11 1017.40 1016.54 1016.06 1014.89 1013.74 1012.94 1011.80 1011.02 1010.38 1009.79 1009.54 1009.50 1009.51 1009.61 1009.90 1010.35 1010.46 1010.49
1016.86 1017.63 1017.91 1019.22 1021.03 1021.98 1023.52 1024.82 1025.87 1026.52 1026.74 1026.88 1026.79 1026.55 1026.23 1025.48 1024.76 1023.90 1023.31 1022.62 1022.13 1021.48 1020.82 1020.39 1019.89 1018.94 1017.70 1017.06 1016.54 1015.69 1014.61 1013.56 1012.27 1011.11 1010.45 1010.04 1009.75 1009.77 1009.85 1009.83 1009.96 1010.20 1010.36 1010.41
1019.79 1020.08 1020.85 1022.25 1023.40 1024.28 1025.35 1026.33 1027.47 1027.67 1027.91 1027.89 1027.79 1027.50 1027.03 1026.33 1025.48 1024.86 1024.07 1023.67 1023.25 1022.72 1021.93 1021.57 1020.81 1019.89 1018.90 1017.97 1017.07 1016.21 1015.18 1014.03 1012.63 1011.35 1010.70 1010.34 1010.20 1010.15 1010.32 1010.45 1010.49 1010.60 1010.62 1010.39
1022.80 1023.85 1024.20 1024.70 1026.42 1027.01 1026.90 1028.07 1028.72 1029.14 1029.27 1029.15 1028.76 1028.07 1027.79 1027.31 1026.35 1025.72 1025.08 1024.71 1024.24 1023.61 1023.13 1022.36 1021.65 1020.75 1019.76 1018.77 1017.81 1016.93 1015.86 1014.57 1012.98 1011.53 1011.01 1010.71 1010.58 1010.58 1010.75 1011.02 1011.24 1011.31 1011.08 1011.03
Wind_Speed
9 7 17 30 21 21 19 18 19 16 9 5 18 18 18 17 17 16 16 18 18 18 15 13 13 13 14 14 15 15 16 16 13 11 10 10 10 9 8 9 12 14 13 14
10 20 31 16 21 19 21 22 20 13 1 8 16 20 16 21 21 19 20 20 19 19 18 17 16 14 16 17 18 17 17 17 15 11 11 11 10 9 9 9 11 14 14 14
20 20 20 20 22 17 22 24 20 18 9 14 16 24 21 26 23 24 21 21 19 19 19 18 17 16 15 16 17 18 18 19 17 17 10 10 9 9 10 11 11 13 15 14
16 23 12 23 19 19 22 22 15 8 7 12 2 14 16 16 15 11 14 15 15 15 14 16 16 15 14 14 15 16 15 17 16 17 15 17 13 14 13 11 11 11 16 16
6 4 20 19 27 17 17 15 11 15 16 13 18 7 12 16 21 14 12 15 14 13 11 10 11 10 11 9 9 11 14 16 17 17 18 14 17 12 11 10 14 15 14 17
1 1 3 11 19 22 11 11 10 10 7 7 22 17 16 16 20 13 3 7 6 4 5 6 5 6 10 9 9 10 13 15 16 17 19 21 20 18 12 14 12 12 11 11
6 11 3 2 6 2 16 16 4 6 6 12 3 11 18 14 15 10 10 13 9 9 8 7 8 8 10 10 9 9 12 15 16 18 19 21 22 19 19 16 13 13 11 11
7 8 17 15 7 6 9 14 6 8 8 13 6 11 7 4 6 7 9 9 9 7 5 6 7 9 11 10 9 11 13 13 14 15 17 17 19 13 13 15 13 11 11 12
7 5 9 21 15 14 7 7 4 2 2 2 7 12 15 13 13 11 11 8 5 4 6 6 8 9 12 12 11 10 11 12 13 13 13 14 15 17 15 17 14 11 13 11
12 4 6 8 8 12 12 10 4 2 5 7 9 12 10 8 9 10 9 8 8 6 7 9 11 10 9 11 10 10 9 12 12 12 11 11 13 14 15 14 15 14 13 14
10 8 5 7 8 16 7 12 8 5 6 6 7 6 6 5 7 12 6 5 6 8 10 11 12 11 9 8 8 10 9 9 9 10 11 10 10 12 12 12 13 14 13 13
15 7 5 5 5 7 13 13 12 8 6 6 5 8 5 2 7 7 4 7 11 12 12 13 12 12 13 14 9 8 8 8 9 10 10 10 11 11 11 12 12 11 13 12
11 5 6 2 3 1 5 11 12 13 2 12 7 6 0 5 7 6 9 10 14 12 13 13 14 14 15 15 15 11 9 8 6 9 10 9 9 10 11 11 10 8 9 9
12 4 9 11 4 11 7 16 19 16 5 13 15 20 8 9 7 12 13 14 15 17 16 16 15 16 16 16 15 15 12 8 6 6 8 7 7 8 8 8 10 10 6 7
13 12 12 10 3 10 14 18 19 18 21 13 25 23 18 17 11 10 13 15 17 15 15 17 17 17 18 19 18 15 13 10 6 6 5 6 6 5 6 5 4 4 3 4
12 4 11 3 4 6 8 15 19 22 21 21 27 24 15 17 11 7 10 13 13 16 16 17 18 19 20 20 20 18 15 11 6 8 6 4 2 4 4 3 2 2 1 2
11 6 5 6 5 2 4 19 19 19 19 22 21 28 13 17 14 12 15 14 12 14 16 18 19 19 19 21 20 21 20 13 8 8 6 4 3 2 2 3 3 3 2 2
11 7 2 4 5 7 4 3 11 18 17 17 20 24 15 9 10 10 11 12 12 16 19 19 17 19 20 22 21 20 19 15 9 9 6 4 4 4 3 3 3 2 0 0
12 7 4 5 7 9 9 4 5 8 13 10 14 13 11 12 8 5 13 14 14 15 17 17 17 19 20 20 19 19 20 16 8 9 7 5 5 4 4 4 4 2 1 2
5 6 5 4 6 8 6 9 5 3 11 11 10 9 10 12 4 3 23 22 20 18 17 18 21 19 18 20 18 18 18 15 13 7 5 2 3 2 4 4 4 2 2 3
6 4 9 6 5 3 5 5 1 7 2 8 9 8 9 6 8 18 22 22 19 18 19 18 17 18 19 20 18 19 16 13 9 8 6 3 2 2 4 3 1 3 4 5
8 8 5 3 4 9 10 2 4 5 6 9 10 10 11 13 16 16 18 21 22 21 21 19 17 18 18 18 12 15 16 11 9 7 4 2 1 2 2 5 2 3 5 6
4 1 4 3 2 6 11 13 9 8 6 10 11 12 13 16 17 19 18 19 19 21 19 18 18 21 17 15 10 14 12 13 10 8 4 1 1 2 2 4 5 4 3 4
2 4 3 5 5 7 10 10 10 10 8 11 12 14 16 18 19 20 18 17 18 18 19 17 19 20 18 13 13 12 13 12 12 9 3 1 1 3 3 2 2 3 3 4
3 2 4 4 4 6 7 8 13 12 12 14 15 16 17 18 19 20 19 18 16 17 16 16 16 16 16 15 14 13 13 13 11 8 2 1 2 3 4 4 3 3 3 3
5 4 2 3 4 3 2 12 14 13 14 15 17 18 17 18 19 20 17 16 16 15 15 14 15 15 15 14 14 13 13 12 12 7 2 1 1 2 4 6 8 15 14 16
Wind_Direction
177 194 215 218 221 242 260 260 254 250 225 281 253 260 266 270 270 262 261 260 256 257 249 245 235 213 216 212 219 224 220 214 211 207 212 216 217 219 225 226 218 216 213 208
176 221 222 227 237 235 246 254 252 254 289 254 268 271 274 272 267 261 261 258 259 258 258 250 243 215 214 214 207 212 219 217 210 214 208 214 212 222 224 217 221 221 219 214
211 224 221 227 233 232 233 238 239 252 200 243 270 273 266 263 252 244 249 257 257 261 263 260 243 237 219 223 224 217 214 216 217 209 210 214 209 210 217 225 215 219 223 218
230 234 217 218 234 223 230 229 250 274 254 262 140 286 284 287 283 234 242 253 257 257 255 261 263 262 247 230 222 230 229 227 223 212 209 210 211 211 215 213 214 210 215 219
188 236 217 224 221 199 236 246 218 237 252 272 261 257 271 237 261 258 259 266 266 268 271 280 286 276 270 278 263 234 236 231 228 219 215 213 218 224 225 217 225 216 212 213
223 100 262 232 232 208 210 192 214 218 241 234 245 234 270 249 255 277 266 265 277 320 6 339 323 299 283 268 252 250 245 234 226 227 219 219 219 219 218 221 221 221 214 212
183 219 181 29 172 237 172 168 188 195 207 241 239 231 241 290 300 288 260 283 299 355 354 334 334 337 320 305 294 267 246 247 235 224 227 222 224 225 226 223 219 220 218 213
170 182 180 167 215 178 185 182 198 215 208 239 126 234 240 262 290 303 285 274 302 308 343 27 4 348 335 321 312 290 273 252 248 240 229 230 232 230 229 231 229 224 224 223
177 158 203 176 175 158 170 204 278 138 69 292 236 245 253 268 277 259 257 275 274 79 45 3 341 334 332 328 320 307 289 273 257 249 244 231 231 233 235 237 232 232 228 225
183 169 196 171 209 197 212 182 177 145 214 242 250 252 254 262 270 90 85 79 85 10 346 337 340 337 329 325 315 307 291 282 273 257 244 243 236 234 237 239 242 233 232 225
191 208 169 164 211 176 183 192 215 191 241 252 264 247 59 71 42 109 89 36 8 352 337 332 330 325 317 314 309 310 297 287 279 265 254 242 237 240 241 240 238 242 237 231
183 183 161 200 326 272 199 197 191 205 185 246 313 262 176 127 117 90 35 0 350 337 341 341 333 339 335 333 328 310 305 296 290 280 266 245 240 232 236 240 241 240 241 237
170 188 148 176 262 63 187 206 204 227 312 203 201 240 97 136 150 166 337 344 340 345 341 341 347 338 337 331 326 319 309 298 291 290 276 263 246 235 234 235 237 234 241 242
156 167 219 218 242 138 199 198 207 206 188 235 232 253 178 188 256 331 320 332 346 342 337 344 342 341 338 331 326 319 307 293 291 290 281 273 271 262 253 249 248 247 240 245
185 202 211 236 261 200 201 203 203 202 230 228 250 252 247 270 309 299 337 319 321 330 336 350 348 343 336 333 327 316 309 295 280 280 275 277 270 287 291 298 294 313 318 302
207 222 181 166 166 189 222 208 213 223 228 237 253 272 284 297 309 306 283 304 325 332 359 346 334 332 332 329 323 316 305 299 264 264 256 257 274 297 278 283 304 308 307 333
169 130 152 195 181 94 271 220 218 229 231 237 249 258 278 287 293 309 327 328 358 353 343 336 332 331 326 324 319 312 307 298 264 255 249 225 251 259 315 302 326 321 310 13
162 129 124 123 140 215 212 126 234 229 236 237 255 267 282 348 343 321 23 36 5 347 336 331 329 324 323 318 316 313 308 291 266 250 236 203 227 226 195 237 223 209 224 150
176 147 110 175 212 320 266 180 169 187 248 314 299 342 23 350 310 93 47 13 349 333 328 322 321 319 319 316 324 320 311 303 271 256 234 190 218 220 195 209 212 168 166 84
174 228 218 167 220 228 46 28 224 156 257 26 20 24 359 339 285 349 349 344 334 331 325 321 319 317 319 322 326 318 310 310 295 309 323 280 233 218 216 205 162 121 107 95
139 144 199 183 221 272 30 357 253 190 10 25 18 15 350 340 340 322 319 317 321 321 324 322 318 315 318 321 320 314 314 313 331 317 303 289 227 201 216 117 97 130 122 108
168 162 179 122 205 247 13 287 249 26 36 17 359 354 332 317 312 314 319 318 320 323 326 328 317 314 316 314 315 310 311 321 315 303 288 279 224 149 129 134 99 113 126 117
188 290 160 229 103 59 42 93 68 31 11 357 338 338 329 320 320 320 320 318 319 323 323 322 320 315 314 316 319 308 313 318 312 296 282 268 81 89 117 140 136 129 129 131
116 353 111 157 92 100 113 102 52 15 357 341 341 332 329 319 320 318 319 321 320 319 320 321 321 315 316 325 321 308 313 315 311 295 289 342 108 108 78 83 100 138 150 135
16 303 137 97 138 136 114 73 5 349 354 344 335 329 324 320 317 317 318 318 317 316 317 319 315 315 316 325 320 319 321 318 308 298 311 36 54 91 82 57 58 81 42 80
0 38 254 83 83 345 358 359 353 359 344 338 331 324 323 319 315 318 316 316 317 318 318 316 314 315 320 322 321 321 321 318 308 296 304 39 70 93 101 101 92 77 84 85